RH
67 68 68 68 69 70 71 71 73 74 76 75 76 76 76 76 76 37 27 20 28 60 62 11 12 9 8 8 9 8 12 12 12 12 8 17 21 30 28 32 34 33 33 36 56
67 68 68 68 68 70 71 72 74 75 76 77 77 77 77 77 50 30 28 54 63 70 15 10 7 7 7 8 9 9 11 11 10 10 9 14 15 32 32 32 40 42 44 48 61
68 68 68 68 69 70 72 74 75 76 76 78 79 77 78 66 36 7 55 60 68 58 6 6 6 6 6 6 8 9 9 8 10 10 9 10 13 20 28 33 31 40 46 56 61
67 68 67 69 69 72 73 76 76 78 79 79 78 76 76 50 11 8 68 71 65 25 6 6 6 8 7 7 6 9 8 7 8 9 10 11 10 18 24 19 24 29 41 53 57
67 68 68 70 72 74 76 77 79 80 81 80 76 76 59 35 14 10 66 57 30 15 7 7 7 6 7 5 6 10 6 7 7 10 10 12 14 16 25 21 30 31 45 52 50
68 69 70 72 74 76 78 81 82 82 80 79 78 77 51 28 5 10 20 21 15 11 9 8 6 6 5 5 6 7 6 6 7 9 10 12 12 18 14 19 34 44 51 49 45
67 70 72 74 76 79 81 84 84 83 82 83 77 68 58 19 9 15 21 17 12 9 10 7 5 6 6 7 7 6 9 7 8 8 9 10 12 24 12 27 32 40 43 45 43
68 73 78 79 81 84 84 84 81 82 80 73 78 65 50 18 16 14 15 14 14 10 9 7 7 6 8 8 8 7 8 7 6 7 7 9 12 11 11 28 32 38 38 41 40
73 77 80 81 83 84 86 82 75 82 76 78 63 59 32 25 21 11 9 12 13 12 13 8 11 10 11 9 8 9 6 8 5 6 6 9 10 7 14 23 28 41 39 37 36
76 79 80 82 83 83 85 70 69 77 62 55 55 63 31 14 21 22 12 11 13 14 14 12 10 11 9 8 8 8 8 7 7 4 8 7 11 7 12 21 25 36 46 41 41
77 79 80 82 81 84 55 24 26 36 33 33 32 42 31 26 23 21 21 11 12 14 13 12 11 12 9 9 6 6 7 6 5 9 9 9 9 9 11 23 25 31 41 48 49
78 79 80 82 82 75 39 38 46 48 64 38 33 34 31 28 39 20 20 11 15 15 11 13 15 8 7 8 9 8 8 8 7 8 11 7 10 12 10 22 24 28 35 42 47
78 79 80 81 79 49 46 40 32 44 78 35 34 37 30 26 27 22 19 10 14 13 12 14 8 7 10 11 12 10 10 9 8 7 8 8 9 7 9 11 14 25 27 36 44
78 79 80 80 52 41 35 33 39 60 61 25 34 32 26 29 33 17 17 11 11 13 11 13 9 9 12 10 10 13 9 8 9 9 7 7 6 7 7 7 12 23 30 36 42
78 79 76 70 52 39 36 37 49 79 70 28 26 20 20 31 26 23 18 16 14 12 13 13 11 13 12 9 10 8 9 9 9 9 12 11 8 4 5 8 7 14 34 42 42
78 75 72 41 40 34 38 51 78 74 64 34 31 40 27 25 27 24 23 18 17 13 13 9 9 9 9 9 10 10 12 12 14 13 19 10 8 5 6 8 8 8 24 38 43
77 71 46 37 49 42 55 60 70 84 30 35 40 51 37 34 31 28 28 32 26 26 20 12 12 9 10 11 12 12 16 17 15 16 13 8 10 9 16 18 20 23 27 32 41
75 67 55 36 46 56 63 51 84 40 36 29 38 63 89 64 43 29 33 36 31 34 24 18 20 14 12 10 13 15 14 16 18 14 9 12 13 12 23 25 26 30 36 43 45
67 47 41 51 56 60 42 84 56 40 36 57 39 64 78 82 79 33 34 40 35 35 46 33 19 13 16 10 9 14 14 9 19 22 13 11 18 22 24 27 29 31 32 34 33
44 38 36 60 61 40 43 58 39 30 29 45 58 64 72 81 85 76 62 63 62 39 32 40 40 25 19 19 14 13 10 20 21 21 16 12 16 14 27 30 29 32 34 33 32
41 25 40 58 42 37 80 50 39 28 26 34 40 43 49 70 84 89 91 86 83 70 31 32 49 36 30 21 14 16 15 16 15 16 14 15 14 26 32 33 31 31 33 36 35
36 62 40 48 57 52 77 46 42 33 29 30 34 34 38 43 54 83 88 71 45 85 84 44 47 47 34 31 26 25 16 17 21 21 18 14 30 30 33 31 31 30 32 33 34
43 39 35 40 90 88 43 37 38 40 38 38 39 35 33 37 52 47 45 37 34 47 77 76 65 52 47 40 32 35 32 30 32 35 22 20 33 32 32 34 33 33 31 31 32
45 92 51 40 39 42 41 41 38 35 40 36 38 34 36 36 34 39 38 32 30 31 43 42 88 88 74 52 34 43 34 28 34 31 22 18 41 39 36 36 32 30 31 31 33
54 75 58 82 74 40 37 38 39 42 37 36 37 38 40 41 37 37 35 33 27 35 32 37 39 45 63 60 41 30 28 27 33 34 36 23 34 35 38 36 33 29 27 28 33
86 82 49 42 42 39 43 43 40 43 41 41 38 37 37 40 38 45 38 34 35 29 35 34 40 33 30 29 35 42 34 21 24 29 32 33 39 33 33 28 30 29 27 28 28
53 60 61 55 42 45 43 41 44 44 37 36 40 38 35 38 41 39 37 37 36 38 38 36 35 34 37 28 28 35 28 33 23 22 26 36 32 32 30 30 29 30 28 29 28
Wind_Speed
25 25 25 25 26 25 24 24 23 22 20 19 18 17 17 17 19 14 14 8 6 7 10 11 12 13 12 14 11 9 12 13 15 11 7 6 7 4 2 8 9 9 1 13 23
26 26 27 27 26 25 25 24 23 22 21 20 17 16 15 16 17 17 12 6 9 11 14 16 16 15 14 15 10 14 14 19 9 8 5 7 4 7 8 11 7 9 8 21 24
28 28 28 28 28 27 26 25 23 22 21 19 18 15 14 16 10 7 6 14 15 12 16 15 11 14 18 13 17 17 19 16 11 10 8 8 7 5 8 12 13 14 17 24 26
28 29 29 29 28 27 27 25 24 22 20 18 17 14 12 6 8 5 6 14 15 15 13 16 15 16 16 18 18 17 19 19 15 10 7 10 5 8 12 9 7 12 20 25 27
29 30 30 30 30 29 27 26 25 22 20 17 15 11 9 9 15 3 9 12 15 15 18 17 17 17 17 14 16 19 19 17 18 10 13 8 12 11 12 11 5 11 20 25 23
30 31 32 32 31 30 29 26 24 23 21 18 12 6 8 14 3 5 6 13 14 16 15 14 11 15 10 14 18 10 21 15 13 17 15 14 16 7 10 12 10 17 21 23 26
31 30 31 33 33 32 29 28 23 22 19 13 8 10 12 21 0 4 8 13 12 17 13 14 8 13 8 9 12 15 14 18 16 14 13 15 18 13 15 10 15 18 19 21 23
32 30 30 30 31 31 29 27 23 14 7 2 13 10 11 4 10 17 9 11 10 13 10 11 10 13 11 3 8 14 15 18 19 18 17 15 19 21 16 14 15 17 17 21 23
32 31 31 30 30 29 29 27 13 5 6 12 8 6 10 3 9 13 21 12 14 13 8 8 11 11 10 14 11 12 14 20 17 16 19 21 16 19 14 15 14 16 17 21 20
32 33 33 32 29 27 27 20 2 5 5 5 3 6 8 3 9 5 12 17 15 15 14 14 11 12 14 16 17 14 17 9 16 17 18 22 22 18 10 16 15 16 16 18 19
33 34 34 32 27 24 18 5 6 6 6 11 20 18 18 9 5 10 9 20 19 18 19 20 18 23 24 19 14 9 14 14 11 7 13 21 19 23 16 14 15 15 18 19 20
32 33 34 31 27 14 9 9 9 9 17 21 26 25 27 22 12 12 11 19 22 23 23 16 24 21 17 19 16 12 13 12 6 9 8 13 18 20 19 16 15 16 18 20 19
32 33 32 30 22 6 7 12 12 7 9 13 7 9 7 12 13 16 16 24 24 26 28 23 12 21 16 17 19 18 15 13 11 8 13 10 14 20 22 14 12 13 15 18 20
32 33 28 26 8 12 5 18 12 2 7 12 3 4 3 6 9 21 13 18 16 27 20 23 9 16 21 23 19 19 16 14 11 9 12 18 10 21 21 22 18 14 14 16 19
33 31 23 10 9 8 14 17 9 5 7 16 15 6 24 7 15 4 5 17 17 16 22 17 18 17 24 24 21 15 11 15 12 13 6 12 10 10 16 21 21 16 11 15 19
34 28 16 5 7 10 17 14 4 6 4 12 15 23 16 12 11 10 8 5 6 12 18 18 7 21 18 15 19 7 13 10 8 9 11 16 15 12 8 10 19 18 10 12 16
36 22 8 7 12 19 11 5 4 6 20 17 22 21 18 16 16 15 6 10 6 12 15 18 14 9 12 17 20 20 19 10 11 11 10 11 12 2 6 4 6 7 2 5 12
32 11 8 5 15 11 5 2 9 17 17 20 21 11 13 22 15 20 7 10 16 15 11 15 19 16 15 22 16 25 22 9 15 15 13 8 11 9 5 6 7 9 10 10 8
21 4 12 16 16 6 3 12 9 14 19 18 16 9 12 16 14 9 13 14 13 19 11 7 15 9 6 10 16 23 22 14 3 5 11 12 6 8 8 9 11 12 12 12 10
6 5 16 23 17 3 8 10 9 14 13 13 14 14 14 14 10 10 16 17 16 20 13 7 10 3 11 9 11 15 17 13 10 14 11 11 15 10 11 9 10 12 14 13 12
4 4 17 22 9 9 8 6 6 16 15 13 14 10 10 11 10 7 11 5 17 21 13 11 6 8 7 12 20 11 16 17 14 12 14 10 9 8 11 8 10 12 13 14 13
5 5 14 14 12 6 9 6 11 15 16 9 13 10 14 12 11 6 9 8 11 14 10 12 7 8 4 6 3 7 14 21 12 19 12 11 9 11 11 10 9 11 12 14 15
4 4 9 11 9 8 7 12 6 15 17 13 14 12 13 12 3 8 9 9 13 10 11 10 6 5 7 4 4 2 4 4 7 7 20 15 11 13 11 10 9 10 11 12 14
4 5 5 8 8 10 9 11 11 6 8 14 11 10 16 9 8 8 11 9 15 8 12 3 5 6 6 11 9 4 3 6 8 12 13 17 21 16 12 10 9 10 10 12 13
6 4 4 5 8 8 7 8 12 11 9 10 7 15 15 10 12 8 15 16 14 4 13 9 6 4 8 12 12 10 10 8 4 5 9 10 16 16 10 9 9 9 10 12 13
3 5 5 3 7 8 6 8 10 11 8 10 13 16 14 13 10 16 16 14 8 7 14 9 5 8 8 3 8 14 14 9 7 6 4 6 14 8 8 10 9 9 10 12 13
2 1 3 3 7 6 5 7 9 10 3 9 15 17 14 12 14 17 16 16 18 18 13 8 6 6 5 5 10 11 9 11 8 5 7 10 5 12 9 9 9 9 10 11 11
Wind_Direction
358 355 352 348 344 340 337 334 330 325 322 319 320 320 321 319 307 271 251 251 194 139 190 161 184 192 205 218 227 229 236 234 228 219 204 169 207 156 151 149 201 170 122 125 151
357 354 349 345 341 338 334 330 326 322 319 315 314 316 320 323 296 265 245 157 176 181 191 188 187 185 201 217 206 216 226 232 231 222 207 167 206 166 193 176 178 157 121 134 152
356 352 348 344 339 336 331 327 322 319 316 313 311 312 318 311 279 246 102 191 201 199 211 207 207 200 219 216 213 220 239 228 223 237 237 207 216 192 217 205 196 192 158 156 162
354 350 346 342 338 334 329 323 318 314 311 308 307 304 313 288 268 61 4 171 182 198 198 194 197 202 217 212 221 241 233 243 224 187 207 225 232 214 229 228 250 194 171 164 173
353 349 345 341 337 333 327 321 316 310 304 298 299 292 274 232 249 107 116 147 167 182 187 186 195 206 217 224 216 229 236 231 240 213 225 235 227 236 225 237 252 157 171 176 181
351 347 344 340 337 333 327 319 316 308 301 293 278 222 242 249 300 233 191 168 185 195 197 198 210 210 251 229 221 212 235 231 236 226 226 227 231 209 231 213 210 168 181 182 185
349 346 342 340 336 331 327 317 316 310 304 288 219 191 241 243 338 157 191 201 199 204 199 207 214 191 193 213 223 235 236 231 220 227 218 225 237 220 239 192 202 191 189 187 189
347 345 341 339 335 330 325 316 319 320 346 16 153 193 252 238 272 241 217 208 208 214 239 197 200 214 222 127 187 214 231 233 214 217 219 225 234 223 207 193 203 204 192 188 191
347 344 342 340 337 330 321 320 322 50 73 128 151 236 259 106 241 234 217 213 187 196 209 180 194 209 183 202 197 204 227 219 223 206 220 215 230 240 163 199 202 199 198 190 189
346 342 342 339 338 329 322 314 287 192 170 236 273 244 240 325 318 291 208 212 185 179 183 191 197 202 211 206 210 198 222 220 220 197 223 224 234 233 191 212 210 193 198 196 196
346 342 341 338 338 328 323 328 346 200 359 300 294 268 290 342 264 233 182 195 205 190 193 197 203 208 204 211 236 251 220 232 212 140 234 223 228 230 200 218 211 199 192 199 201
345 344 340 335 338 324 333 43 37 315 296 277 266 262 265 283 284 258 194 184 193 199 198 183 221 209 217 209 210 210 209 214 195 197 237 223 226 230 206 208 220 205 201 195 195
345 344 341 331 332 323 359 32 340 311 273 298 280 281 291 212 230 247 210 209 196 202 201 206 207 217 202 197 209 217 223 223 237 191 228 262 234 224 235 221 226 231 210 198 191
344 343 340 329 297 340 349 349 340 276 275 353 36 60 342 265 242 232 221 209 212 211 200 225 188 208 201 211 205 210 218 230 225 224 221 204 236 209 219 217 215 210 210 200 196
342 342 340 357 321 336 336 326 327 214 296 339 3 340 328 244 326 93 250 225 229 209 201 206 209 194 210 209 199 224 195 211 210 218 246 200 240 239 215 214 222 200 199 204 200
340 343 334 9 316 335 325 313 228 252 330 354 8 345 355 7 8 326 197 240 305 195 209 224 213 215 204 212 194 151 178 184 206 219 231 222 219 202 192 242 225 214 168 207 207
339 344 358 349 336 319 317 247 285 10 342 348 342 341 346 359 22 9 78 61 7 223 195 197 189 192 233 186 193 186 171 169 199 201 233 187 199 144 77 22 342 331 23 198 206
340 336 354 19 334 321 272 267 36 356 355 328 338 353 15 358 21 29 38 41 26 350 273 193 194 187 185 205 188 199 195 197 197 206 191 157 217 131 77 84 83 86 77 58 51
328 343 4 345 341 314 309 49 28 350 335 340 338 1 10 358 352 17 46 21 19 8 335 302 211 197 198 207 203 195 207 226 272 347 213 179 111 127 118 98 90 84 75 64 55
334 310 11 341 330 348 64 74 43 1 345 356 11 16 6 8 16 15 9 32 353 352 327 353 270 188 174 216 226 236 204 202 223 188 198 188 176 140 154 110 86 71 68 60 53
347 6 357 337 319 51 58 46 2 5 0 6 6 6 14 13 14 35 15 14 360 341 332 347 264 151 196 212 200 193 214 215 232 237 221 178 184 100 122 88 75 58 48 49 49
352 48 350 327 51 24 33 7 9 9 6 17 12 355 10 15 18 43 13 357 354 352 355 0 309 266 134 58 344 319 233 213 225 206 236 238 117 121 112 87 75 65 50 42 38
29 6 17 359 46 29 34 26 19 11 18 9 13 12 343 19 352 27 355 344 357 8 7 340 356 248 170 198 112 36 35 287 287 295 209 221 135 146 122 100 74 68 57 50 42
359 12 5 31 35 22 9 8 10 29 19 357 11 1 358 346 8 1 359 345 333 328 345 304 301 343 333 2 340 284 347 350 274 227 226 217 132 151 144 114 87 71 60 52 45
10 41 1 1 13 4 13 2 6 9 356 19 354 3 346 333 331 2 340 333 332 356 353 355 279 285 280 291 307 309 304 321 311 330 257 179 159 150 123 109 89 78 67 59 49
41 345 344 318 337 348 19 12 2 355 338 349 344 338 325 313 314 316 326 327 310 319 337 329 277 316 293 229 279 288 287 281 278 275 264 173 117 112 124 113 98 81 70 60 50
40 92 301 318 329 334 7 336 326 329 334 328 325 318 319 343 323 304 295 286 278 286 296 290 301 323 264 329 304 270 252 254 260 275 290 214 132 149 133 115 103 95 75 63 52